Location: Catacaguana
(10.4120°N, 66.7591°W)
Time: 19:44:21
(UTC+00:00)

FengYun 1-2 T - Pass Details

Date: 05 February 2023
Orbit: 847 x 880 km, 98.7° (Epoch: 24 March)

Event Time Altitude Azimuth Distance (km) Brightness Sun altitude
Rises 08:42:51 0° 40° (NE) 3,463 7.7 -31.1°
Reaches altitude 10° 08:46:01 10° 58° (ENE) 2,528 7.2 -30.3°
Maximum altitude 08:49:45 18° 100° (E) 2,006 6.9 -29.4°
Drops below altitude 10° 08:53:29 10° 142° (SE) 2,531 7.3 -28.5°
Sets 08:56:38 0° 160° (SSE) 3,468 7.8 -27.8°
